Regional Weather Roundup
Issued by NWS New Orleans/Baton Rouge, LA

Home | Current Version | Previous Version | Text Only | Print | Product List | Glossary On
Versions: 1 2 3 4 5 6 7 8 9 10 11 12 13 14 15 16 17 18 19 20 21 22 23 24 25 26 27 28 29 30 31 32 33 34 35 36 37 38 39 40 41 42 43 44 45 46 47 48 49 50
052
ASUS44 KLIX 301201
RWRLIX
NEW ORLEANS REGIONAL WEATHER ROUNDUP
NATIONAL WEATHER SERVICE NEW ORLEANS LA
700 AM CDT TUE SEP 30 2014

NOTE: "FAIR" INDICATES FEW OR NO CLOUDS BELOW 12,000 FEET WITH NO
      SIGNIFICANT WEATHER AND/OR OBSTRUCTIONS TO VISIBILITY.
      SKY/WX - SKY CONDITION AND SIGNIFICANT WEATHER.
      TMP - AIR TEMPERATURE.     DP    - DEWPOINT TEMPERATURE.
      RH  - RELATIVE HUMIDITY.   PRES  - PRESSURE.
      HI  - HEAT INDEX.          WCI   - WIND CHILL INDEX.

*  THESE STATIONS ARE NOT NWS OR FAA STATIONS AND ARE NOT UNDER
   NWS QUALITY CONTROL.

LAZ038-040-048-061>063-065>067-069-301300-
SOUTHEAST LOUISIANA

CITY           SKY/WX    TMP DP  RH WIND       PRES   REMARKS
N.O. AUDUBON     N/A     76  73  92 MISG        N/A
6HR MIN TEMP:  73; 6HR MAX TEMP:  76;

N.O. INTL ARPT PTCLDY    75  71  87 E3        29.88R
6HR MIN TEMP:  73; 6HR MAX TEMP:  77;

N.O. LAKEFRONT CLEAR     76  72  87 E12       29.89R
6HR MIN TEMP:  76; 6HR MAX TEMP:  79;

N.O. DOWNTOWN*   N/A     75  68  78 NE6       29.89S
6HR MIN TEMP:  75; 6HR MAX TEMP:  79;

SLIDELL        CLEAR     68  66  93 CALM      29.90R
6HR MIN TEMP:  68; 6HR MAX TEMP:  72;

BATON ROUGE    CLEAR     69  68  96 CALM      29.90R
6HR MIN TEMP:  69; 6HR MAX TEMP:  72; 6HR PCP: TRACE;

BOOTHVILLE     LGT RAIN  77  74  90 E5        29.88S FOG
6HR MIN TEMP:  77; 6HR MAX TEMP:  79; 6HR PCP:  0.02;

BELLE CHASSE   PTCLDY    71  68  90 CALM      29.88R FOG
6HR MIN TEMP:  70; 6HR MAX TEMP:  73;

BOGALUSA*        N/A     68  65  90 CALM      29.92R FOG
6HR MIN TEMP:  68; 6HR MAX TEMP:  72;

GALLIANO*      NOT AVBL
NEW ROADS*     FOG       69  68  98 CALM      29.90R VSB 1/2
6HR MIN TEMP:  68; 6HR MAX TEMP:  72;

GONZALES*        N/A     69  69 100 CALM      29.89R FOG
6HR MIN TEMP:  69; 6HR MAX TEMP:  72;

HAMMOND*       NOT AVBL
HOUMA*         CLEAR    N/A N/A N/A CALM      29.88R FOG
PORT FOURCHON* MOSUNNY   77  75  94 N7        29.91R

$$

MSZ070-080>082-301300-
SOUTHERN MISSISSIPPI

CITY           SKY/WX    TMP DP  RH WIND       PRES   REMARKS
MCCOMB         CLEAR     69  66  90 CALM      29.91R
6HR MIN TEMP:  68; 6HR MAX TEMP:  73;

GULFPORT       CLEAR     71  69  93 N3        29.90R
6HR MIN TEMP:  70; 6HR MAX TEMP:  75;

BILOXI         CLEAR     71  71 100 NE6       29.90R
6HR MIN TEMP:  71; 6HR MAX TEMP:  74;

PASCAGOULA     CLEAR     69  68  96 CALM      29.90R FOG
6HR MIN TEMP:  68; 6HR MAX TEMP:  71;


$$

COASTAL OBSERVATIONS
LAKE AND NEARSHORE STATIONS

STATION/POSITION TIME  TEMP    WIND        PRES    WAVE
                       AIR SEA DIR/SP/G            HT/PER
                 (UTC) (F)     (DEG/KT/KT) (MB)    (FT/S)
PASCAGOULA       1100   72      30/  5/  7 1011.7
WAVELAND YACHT   1100   73      30/  8/  9 1011.7
GRAND ISLE       1100   77 80   50/  4/  5 1012.2
SOUTHWEST PASS   1100   80 85   30/  5/  6 1011.9
NEW CANAL        1100   77 77   60/  9/ 11 1012.2
SHELL BEACH      1100   76 74   20/  9/ 10 1011.8

OFFSHORE STATIONS

STATION/POSITION TIME  TEMP    WIND        PRES    WAVE
                       AIR SEA DIR/SP/G            HT/PER
                 (UTC) (F)     (DEG/KT/KT) (MB)    (FT/S)
64 S DAUPHIN ISL 1115   77 82  120/  6/  8 1011.9    2/ 4

$$




USA.gov is the U.S. government's official web portal to all federal, state and local government web resources and services.